www.pogodaiklimat.ru

Погода и климат >> Архив погоды >> Россия >> Калмыкия >> Яшкуль


АРХИВ ПОГОДЫ в Яшкуле

Время (UTC), дата Ветер
(напр.,м/с)
 
Видим.   Явления Облачность Т
(С)
Тd
(С)
f
(%)
Тe
(С)
Тes
(С)
Комфортность P
(гПа)
Po
(гПа)
Тmin
(С)
Tmax
(С)
R
(мм)
R24
(мм)
S
(см)
09 18.04 ЮВ 5 20 км 6/0
[Ci sp]
+20.9 +10.4 51 +23 +30 комфорт 1012.5 1013.3
12 18.04 ЮВ 5 20 км 8/0
[Ac trans Ci sp]
+23.2 +8.9 40 +25 +27 комфорт 1011.0 1011.8
15 18.04 ЮВ 5 20 км 8/0
[Ac trans Ci sp]
+23.2 +8.9 40 +25 +25 комфорт 1011.0 1011.8
18 18.04 В 4 20 км ясно +12.2 +9.0 81 +10 +10 по сезону 1010.5 1011.4
21 18.04 В 5 20 км 10/0
[Ac As]
+9.8 +9.1 95 +6 +6 по сезону 1009.4 1010.2
00 19.04 В 3 20 км 10/0
[Ac As]
+10.7 +9.5 92 +9 +9 тепло 1008.0 1008.9
03 19.04 Ю 2 20 км 10/0
[Ac As]
+11.4 +10.2 92 +10 +10 по сезону 1009.0 1009.9 +9.3
06 19.04 З 4 20 км 10/0
[Ac As]
+12.2 +9.1 81 +10 +12 по сезону 1010.2 1011.1
09 19.04 З 12-18
{18}
20 км 10/6 600 м
[Cb cap Ac As]
+15.1 +3.8 47 +13 +13 по сезону 1011.0 1011.9
12 19.04 СЗ 3
{18}
10 км слабый дождь 10/10 300 м
[Frnb Ns]
+9.9 +7.2 83 +8 +8 очень
холодно
1014.3 1015.1
15 19.04 З 2 20 км {дождь} 8/0
[Ac trans]
+10.9 +8.0 82 +10 +10 прохладно 1014.5 1015.3 +15.3 3
18 19.04 З 4
{14}
20 км {дождь} ясно +8.3 +2.1 65 +5 +5 холодно 1017.2 1018.1
21 19.04 З 3
{10}
20 км {дождь} ясно +5.4 +1.4 75 +2 +2 холодно 1017.7 1018.6
00 20.04 З 4 20 км 5/0
[Ac trans]
+6.3 +2.2 75 +3 +3 прохладно 1018.1 1018.9
03 20.04 З 5 20 км ясно +6.3 +3.2 81 +2 +2 холодно 1018.9 1019.8 +5.1
06 20.04 З 5 20 км 10/8 300 м
[St Ac As]
+9.1 +3.9 70 +6 +6 холодно 1019.8 1020.7
09 20.04 З 7-11
{11}
20 км 10/0
[Ac As]
+9.8 +3.4 64 +6 +8 очень
холодно
1020.2 1021.0
12 20.04 З 5
{11}
20 км 5/0
[Ac und]
+9.1 +1.6 59 +6 +9 очень
холодно
1020.3 1021.1
15 20.04 С 3 20 км ясно +10.4 +1.7 55 +9 +9 холодно 1019.9 1020.8 +11.0
18 20.04 В 1 20 км ясно +6.0 +2.4 78 +5 +5 холодно 1020.7 1021.6
21 20.04 СВ 2 20 км ясно +3.9 +1.0 81 +1 +1 очень
холодно
1020.2 1021.1
00 21.04 В 3 20 км ясно +1.3 +0.1 92 -3 -3 очень
холодно
1018.5 1019.4
03 21.04 В 4 20 км 5/0
[Ci fib]
+1.9 +0.3 89 -3 -3 очень
холодно
1018.2 1019.0 +0.1
06 21.04 В 6 20 км 10/0
[Ac As]
+9.3 +3.0 65 +6 +7 холодно 1017.1 1018.0
09 21.04 В 5
{10}
20 км 10/0
[Ac As]
+13.8 +5.3 56 +12 +15 по сезону 1016.1 1016.9
12 21.04 В 5
{10}
20 км 10/4 600 м
[Cb cap Ac As]
+15.3 +4.9 50 +14 +15 прохладно 1014.2 1015.1
15 21.04 ЮВ 5
{12}
20 км 10/0
[Ac As]
+13.4 +4.8 56 +12 +12 по сезону 1012.5 1013.4 +15.8
18 21.04 ЮВ 3 20 км 10/0
[Ac As]
+11.2 +5.8 69 +10 +10 по сезону 1012.6 1013.4
21 21.04 ЮВ 2 20 км 10/0
[Ac As]
+10.1 +6.7 79 +9 +9 по сезону 1010.7 1011.5
00 22.04 З 6
{16}
10 км слабый дождь 10/10 300 м
[Frnb Ns]
+4.9 +3.8 93 -0 -0 холодно 1013.2 1014.0
03 22.04 ЮЗ 2
{10}
20 км {дождь} 10/0
[Ac As]
+5.0 +3.7 91 +2 +2 холодно 1012.4 1013.2 +4.8 3
06 22.04 ЮЗ 5 20 км {дождь} 8/6 300 м
[St Ac trans]
+8.0 +3.7 74 +4 +6 холодно 1011.9 1012.7
09 22.04 З 12-22
{24}
20 км {дождь} 9/6 600 м
[Cu med, cong Ac trans Ci fib]
+11.7 +1.0 48 +8 +8 холодно 1011.4 1012.2
12 22.04 ЮЗ 13-22
{26}
20 км 8/6 300 м
[St Ac trans Ci fib]
+11.0 +2.5 56 +7 +7 очень
холодно
1012.6 1013.4
15 22.04 З 9-14
{22}
20 км 10/8 600 м
[Cu med, cong Ac As]
+9.0 +3.6 69 +5 +5 очень
холодно
1015.3 1016.2 +12.2
18 22.04 ЮЗ 2
{16}
20 км ясно +5.9 +1.6 74 +4 +4 холодно 1017.3 1018.2
21 22.04 Ю 4 20 км ясно +4.8 +2.3 84 +1 +1 холодно 1017.8 1018.7
00 23.04 ЮЗ 3 20 км 8/0
[Ac trans]
+5.4 +2.6 82 +2 +2 прохладно 1017.3 1018.1
03 23.04 Ю 3 20 км 10/0
[Ac As]
+5.9 +3.1 82 +3 +3 холодно 1017.0 1017.9 +4.7
06 23.04 В 2 20 км 10/0
[Ac As]
+9.3 +3.1 65 +8 +11 прохладно 1015.3 1016.1
09 23.04 В 7-11
{11}
20 км 10/0
[Ac As]
+12.7 +2.0 48 +10 +12 прохладно 1011.5 1012.3
12 23.04 В 10-16
{16}
20 км 10/0
[Ac As]
+14.7 +3.1 46 +12 +12 холодно 1006.0 1006.9
15 23.04 В 11-18
{19}
20 км 10/0
[Ac As]
+13.0 +3.6 53 +10 +10 прохладно 1000.0 1000.8 +14.8
18 23.04 В 7
{17}
20 км 10/0
[Ac As]
+12.7 +5.2 60 +10 +10 по сезону 1001.9 1002.7
21 23.04 З 1 20 км 10/0
[Ac As]
+10.5 +7.0 79 +10 +10 по сезону 1001.0 1001.9
00 24.04 З 12-21
{19}
20 км 10/0
[Ac As]
+10.6 -0.2 47 +6 +6 по сезону 1003.8 1004.6
03 24.04 З 13-21
{21}
20 км ясно +7.4 +1.5 66 +2 +2 холодно 1004.3 1005.2 +6.5
06 24.04 З 11-20
{22}
20 км 9/9 300 м
[St]
+9.2 +4.0 70 +4 +4 очень
холодно
1006.9 1007.7
09 24.04 З 10-16
{23}
20 км 10/0
[Ac As]
+9.7 +5.2 74 +5 +5 очень
холодно
1009.5 1010.3
12 24.04 З 9-15
{19}
20 км 6/0
[Ac und]
+14.8 +3.1 45 +13 +13 прохладно 1010.9 1011.7
15 24.04 СЗ 4
{15}
20 км ясно +14.3 +4.1 50 +13 +14 по сезону 1012.6 1013.4 +15.2
18 24.04 З 6-11
{11}
20 км 10/0
[Ac As]
+11.5 +2.8 55 +9 +9 по сезону 1016.9 1017.7
21 24.04 ЮЗ 5
{14}
20 км 10/0
[Ac As]
+8.7 +2.3 64 +5 +5 прохладно 1018.5 1019.3
00 25.04 ЮЗ 6 20 км 10/0
[Ac As]
+7.9 +1.3 63 +4 +4 по сезону 1019.5 1020.3
03 25.04 ЮЗ 5
{11}
20 км 10/0
[Ac As]
+6.8 +2.1 72 +3 +3 холодно 1021.1 1021.9 +6.8

 

Местоположение метеостанции Яшкуль (Калмыкия, Россия): широта 46.18 долгота 45.35 высота над уровнем моря -7 м.

В архиве по умолчанию представлена погода в Яшкуле за последнюю неделю. Архивные данные за месяц целиком и за предыдущие месяцы, начиная с января 2011 года, Вы можете получить, выбрав интересующий диапазон дат из раскрывающегося списка и нажав кнопку "Ввод!".

Внимание! Время в таблицах - всемирное. Для получения местного времени необходимо прибавить поправку, которая в Яшкуле равна 3 ч.

Смотрите также архив погоды в соседних городах и на ближайших метеорологических станциях:

Погода в Утте (Калмыкия, Россия) (56 км)
Погода в Ики-Буруле (Калмыкия, Россия) (70 км)
Погода в Элисте (Калмыкия, Россия) (81 км)
Погода в Комсомольском (Калмыкия, Россия) (106 км)
Погода в Арзгире (Ставропольский край, Россия) (124 км)
Погода в Юсте (Калмыкия, Россия) (129 км)
Погода в Ремонтном (Ростовская область, Россия) (136 км)
Погода в Кетченерах (Калмыкия, Россия) (140 км)
Погода в Лимане (Астраханская область, Россия) (151 км)
Погода в Дивном (Ставропольский край, Россия) (157 км)

Пояснения к столбцам:

Ветер - указаны скорость ветра в м/с - средняя за 10 мин, порывы в срок и между сроками (в фигурных скобках) и направление, откуда дует ветер: С - северный, СВ - северо-восточный, В - восточный, ЮВ - юго-восточный, Ю - южный, ЮЗ - юго-западный, З - западный, СЗ - северо-западный.
Видимость - горизонтальная дальность видимости в метрах или километрах. При видимости от 1 до 10 км при отсутствии осадков обычно наблюдается дымка, при ухудшении видимости до 1 км и менее - туман. В сухую погоду видимость может ухудшаться дымом, пылью или мглою.
Явления - указаны атмосферные явления, наблюдавшиеся в срок или в последний час перед сроком; фигурными скобками обозначены явления, наблюдавшиеся между сроками (за 1-3 часа до срока); квадратными скобками обозначены град или гололедные отложения с указанием их диаметра в мм.
Облачность - указаны через наклонную черту общая и нижняя облачность в баллах и высота нижней границы облаков в метрах; квадратными скобками обозначены формы облаков: Ci - перистые, Cs - перисто-слоистые, Cc - перисто-кучевые, Ac - высококучевые, As - высокослоистые, Sc - слоисто-кучевые, Ns - слоисто-дождевые, Cu - кучевые, Cb - кучево-дождевые. Подробнее классификацию облаков см. в Атласе облаков (PDF).
T - Температура воздуха - температура, измеренная на высоте 2 м над землей.
Td - Температура точки росы - температура, при понижении до которой содержащийся в воздухе водяной пар достигнет насыщения.
f - Относительная влажность воздуха - влажноcть воздуха, измеренная на высоте 2 м над землей.
Te - Эффективная температура - температура, которую ощущает одетый по сезону человек в тени. Характеристика душности погоды. При расчете учитывается влияние влажности воздуха и скорости ветра на теплоощущения человека.
Tes - Эффективная температура на солнце - температура, которую ощущает человек, с поправкой на солнечный нагрев. Характеристика знойности погоды. Зависит от высоты солнца над горизонтом, облачности и скорости ветра. Ночью, в пасмурную погоду, а также при ветре 12 м/с и более поправка равна нулю.
P - Атмосферное давление - приведенное к уровню моря атмосферное давление.
Po - Атмосферное давление - измеренное на уровне метеостанции атмосферное давление.
Tmin - Минимальная температура - минимум температуры воздуха на высоте 2 м над землей.
Tmax - Максимальная температура - максимум температуры воздуха на высоте 2 м над землей.
R - Количество осадков - Количество выпавших осадков за период времени, мм. При наведении курсора мыши на число - период времени, за который выпало указанное количество осадков.
R24 - Количество осадков - Количество выпавших осадков за 24 часа, мм.
S - Снежный покров - Высота снежного покрова, см. При наведении курсора мыши на число - состояние снежного покрова и степень покрытия местности в баллах.